Time,TemperatureF,DewpointF,PressureIn,WindDirection,WindDirectionDegrees,WindSpeedMPH,WindSpeedGustMPH,Humidity,HourlyPrecipIn,Conditions,Clouds,dailyrainin,SoftwareType,DateUTC
2013-03-31 00:00:00,37.7,20.3,30.04,WSW,256,0.0,0.0,49,0.00,,CLR,0.00,VWS V14.01,2013-03-31 04:00:00,
2013-03-31 00:05:00,37.0,20.6,30.05,WSW,255,0.0,1.0,51,0.00,,CLR,0.00,VWS V14.01,2013-03-31 04:05:00,
2013-03-31 00:10:00,36.7,20.3,30.05,WSW,255,0.0,1.0,51,0.00,,CLR,0.00,VWS V14.01,2013-03-31 04:10:00,
2013-03-31 00:15:00,36.3,20.8,30.05,WSW,256,0.0,0.0,53,0.00,,CLR,0.00,VWS V14.01,2013-03-31 04:15:00,
2013-03-31 00:20:00,35.9,20.5,30.05,WSW,256,0.0,0.0,53,0.00,,CLR,0.00,VWS V14.01,2013-03-31 04:20:00,
2013-03-31 00:25:00,35.7,20.7,30.05,WSW,256,0.0,1.0,54,0.00,,CLR,0.00,VWS V14.01,2013-03-31 04:25:00,
2013-03-31 00:30:00,35.5,20.5,30.05,WSW,256,0.0,0.0,54,0.00,,CLR,0.00,VWS V14.01,2013-03-31 04:30:00,
2013-03-31 00:35:00,35.7,19.8,30.05,WSW,255,0.0,1.0,52,0.00,,CLR,0.00,VWS V14.01,2013-03-31 04:35:00,
2013-03-31 00:40:00,35.9,20.0,30.06,WSW,255,0.0,1.0,52,0.00,,CLR,0.00,VWS V14.01,2013-03-31 04:40:00,
2013-03-31 00:45:00,35.8,20.4,30.05,WSW,254,0.0,0.0,53,0.00,,CLR,0.00,VWS V14.01,2013-03-31 04:45:00,
2013-03-31 00:50:00,35.6,20.6,30.06,WSW,254,0.0,0.0,54,0.00,,CLR,0.00,VWS V14.01,2013-03-31 04:50:00,
2013-03-31 00:55:00,35.4,20.0,30.06,WSW,255,0.0,0.0,53,0.00,,CLR,0.00,VWS V14.01,2013-03-31 04:55:00,
2013-03-31 01:00:00,35.6,20.2,30.06,WSW,255,0.0,1.0,53,0.00,,CLR,0.00,VWS V14.01,2013-03-31 05:00:00,
2013-03-31 01:05:00,35.5,20.5,30.06,WSW,256,0.0,0.0,54,0.00,,CLR,0.00,VWS V14.01,2013-03-31 05:05:00,
2013-03-31 01:10:00,35.3,19.9,30.06,WSW,256,0.0,0.0,53,0.00,,CLR,0.00,VWS V14.01,2013-03-31 05:10:00,
2013-03-31 01:15:00,35.3,20.8,30.06,WSW,256,0.0,0.0,55,0.00,,CLR,0.00,VWS V14.01,2013-03-31 05:15:00,
2013-03-31 01:20:00,35.0,20.5,30.06,WSW,256,0.0,0.0,55,0.00,,CLR,0.00,VWS V14.01,2013-03-31 05:20:00,
2013-03-31 01:25:00,34.8,20.3,30.06,WSW,256,0.0,0.0,55,0.00,,CLR,0.00,VWS V14.01,2013-03-31 05:25:00,
2013-03-31 01:30:00,34.4,20.8,30.06,WSW,256,0.0,0.0,57,0.00,,CLR,0.00,VWS V14.01,2013-03-31 05:30:00,
2013-03-31 01:35:00,33.8,20.6,30.06,WSW,256,0.0,0.0,58,0.00,,CLR,0.00,VWS V14.01,2013-03-31 05:35:00,
2013-03-31 01:40:00,33.1,20.7,30.06,WSW,256,0.0,0.0,60,0.00,,CLR,0.00,VWS V14.01,2013-03-31 05:40:00,
2013-03-31 01:45:00,32.7,20.4,30.06,WSW,256,0.0,0.0,60,0.00,,CLR,0.00,VWS V14.01,2013-03-31 05:45:00,
2013-03-31 01:50:00,32.4,20.5,30.06,WSW,256,0.0,0.0,61,0.00,,CLR,0.00,VWS V14.01,2013-03-31 05:50:00,
2013-03-31 01:55:00,31.8,20.7,30.06,WSW,256,0.0,0.0,63,0.00,,CLR,0.00,VWS V14.01,2013-03-31 05:55:00,
2013-03-31 02:00:00,31.2,21.2,30.06,WSW,255,0.0,1.0,66,0.00,,CLR,0.00,VWS V14.01,2013-03-31 06:00:00,
2013-03-31 02:05:00,31.1,20.7,30.06,WSW,256,0.0,0.0,65,0.00,,CLR,0.00,VWS V14.01,2013-03-31 06:05:00,
2013-03-31 02:10:00,30.9,20.9,30.05,WSW,256,0.0,0.0,66,0.00,,CLR,0.00,VWS V14.01,2013-03-31 06:10:00,
2013-03-31 02:15:00,30.7,20.3,30.05,WSW,256,1.0,1.0,65,0.00,,CLR,0.00,VWS V14.01,2013-03-31 06:15:00,
2013-03-31 02:20:00,31.4,20.6,30.05,WSW,256,1.0,1.0,64,0.00,,CLR,0.00,VWS V14.01,2013-03-31 06:20:00,
2013-03-31 02:25:00,31.3,20.9,30.05,WSW,256,0.0,0.0,65,0.00,,CLR,0.00,VWS V14.01,2013-03-31 06:25:00,
2013-03-31 02:30:00,31.0,20.6,30.05,WSW,256,0.0,0.0,65,0.00,,CLR,0.00,VWS V14.01,2013-03-31 06:30:00,
2013-03-31 02:35:00,30.6,20.6,30.05,WSW,256,0.0,0.0,66,0.00,,CLR,0.00,VWS V14.01,2013-03-31 06:35:00,
2013-03-31 02:40:00,30.2,20.6,30.05,WSW,256,0.0,0.0,67,0.00,,CLR,0.00,VWS V14.01,2013-03-31 06:40:00,
2013-03-31 02:45:00,30.0,21.1,30.05,WSW,256,0.0,0.0,69,0.00,,CLR,0.00,VWS V14.01,2013-03-31 06:45:00,
2013-03-31 02:50:00,30.0,21.4,30.05,WSW,256,0.0,0.0,70,0.00,,CLR,0.00,VWS V14.01,2013-03-31 06:50:00,
2013-03-31 02:55:00,30.1,21.5,30.05,WSW,256,0.0,0.0,70,0.00,,CLR,0.00,VWS V14.01,2013-03-31 06:55:00,
2013-03-31 03:00:00,30.0,21.4,30.05,WSW,256,0.0,0.0,70,0.00,,CLR,0.00,VWS V14.01,2013-03-31 07:00:00,
2013-03-31 03:05:00,29.7,21.8,30.05,WSW,256,0.0,0.0,72,0.00,,CLR,0.00,VWS V14.01,2013-03-31 07:05:00,
2013-03-31 03:10:00,29.4,21.8,30.05,WSW,256,0.0,0.0,73,0.00,,CLR,0.00,VWS V14.01,2013-03-31 07:10:00,
2013-03-31 03:15:00,29.3,21.7,30.05,WSW,256,0.0,0.0,73,0.00,,CLR,0.00,VWS V14.01,2013-03-31 07:15:00,
2013-03-31 03:20:00,29.2,22.3,30.05,WSW,256,0.0,0.0,75,0.00,,CLR,0.00,VWS V14.01,2013-03-31 07:20:00,
2013-03-31 03:25:00,28.7,21.8,30.05,WSW,256,0.0,0.0,75,0.00,,CLR,0.00,VWS V14.01,2013-03-31 07:25:00,
2013-03-31 03:30:00,28.3,21.7,30.05,WSW,256,0.0,0.0,76,0.00,,CLR,0.00,VWS V14.01,2013-03-31 07:30:00,
2013-03-31 03:35:00,28.4,22.1,30.05,WSW,256,0.0,0.0,77,0.00,,CLR,0.00,VWS V14.01,2013-03-31 07:35:00,
2013-03-31 03:40:00,28.5,22.5,30.05,WSW,256,0.0,0.0,78,0.00,,CLR,0.00,VWS V14.01,2013-03-31 07:40:00,
2013-03-31 03:45:00,28.5,22.5,30.05,WSW,256,0.0,0.0,78,0.00,,CLR,0.00,VWS V14.01,2013-03-31 07:45:00,
2013-03-31 03:50:00,28.4,22.4,30.05,WSW,256,0.0,0.0,78,0.00,,CLR,0.00,VWS V14.01,2013-03-31 07:50:00,
2013-03-31 03:55:00,28.6,22.6,30.05,WSW,255,0.0,0.0,78,0.00,,CLR,0.00,VWS V14.01,2013-03-31 07:55:00,
2013-03-31 04:00:00,28.7,22.7,30.05,WSW,255,0.0,0.0,78,0.00,,CLR,0.00,VWS V14.01,2013-03-31 08:00:00,
2013-03-31 04:05:00,29.0,22.4,30.05,WSW,255,0.0,0.0,76,0.00,,CLR,0.00,VWS V14.01,2013-03-31 08:05:00,
2013-03-31 04:10:00,29.2,22.3,30.05,WSW,254,0.0,0.0,75,0.00,,CLR,0.00,VWS V14.01,2013-03-31 08:10:00,
2013-03-31 04:15:00,29.5,22.2,30.05,WSW,255,1.0,1.0,74,0.00,,CLR,0.00,VWS V14.01,2013-03-31 08:15:00,
2013-03-31 04:20:00,29.5,22.2,30.05,WSW,254,0.0,1.0,74,0.00,,CLR,0.00,VWS V14.01,2013-03-31 08:20:00,
2013-03-31 04:25:00,29.5,22.2,30.05,WSW,255,0.0,1.0,74,0.00,,CLR,0.00,VWS V14.01,2013-03-31 08:25:00,
2013-03-31 04:30:00,29.3,22.4,30.05,WSW,255,0.0,0.0,75,0.00,,CLR,0.00,VWS V14.01,2013-03-31 08:30:00,
2013-03-31 04:35:00,29.0,22.1,30.05,WSW,255,0.0,0.0,75,0.00,,CLR,0.00,VWS V14.01,2013-03-31 08:35:00,
2013-03-31 04:40:00,28.9,22.0,30.05,WSW,255,0.0,0.0,75,0.00,,CLR,0.00,VWS V14.01,2013-03-31 08:40:00,
2013-03-31 04:45:00,29.0,22.1,30.06,WSW,255,0.0,0.0,75,0.00,,CLR,0.00,VWS V14.01,2013-03-31 08:45:00,
2013-03-31 04:50:00,29.3,22.1,30.06,WSW,254,0.0,0.0,74,0.00,,CLR,0.00,VWS V14.01,2013-03-31 08:50:00,
2013-03-31 04:55:00,29.4,22.1,30.05,WSW,255,0.0,0.0,74,0.00,,CLR,0.00,VWS V14.01,2013-03-31 08:55:00,
2013-03-31 05:00:00,29.2,22.0,30.06,WSW,255,0.0,0.0,74,0.00,,CLR,0.00,VWS V14.01,2013-03-31 09:00:00,
2013-03-31 05:05:00,28.8,21.9,30.06,WSW,255,0.0,0.0,75,0.00,,CLR,0.00,VWS V14.01,2013-03-31 09:05:00,
2013-03-31 05:10:00,28.7,21.8,30.06,WSW,255,0.0,0.0,75,0.00,,CLR,0.00,VWS V14.01,2013-03-31 09:10:00,
2013-03-31 05:15:00,29.0,21.8,30.06,WSW,255,0.0,0.0,74,0.00,,CLR,0.00,VWS V14.01,2013-03-31 09:15:00,
2013-03-31 05:20:00,29.1,21.9,30.06,WSW,255,0.0,0.0,74,0.00,,CLR,0.00,VWS V14.01,2013-03-31 09:20:00,
2013-03-31 05:25:00,29.0,21.8,30.06,WSW,255,0.0,0.0,74,0.00,,CLR,0.00,VWS V14.01,2013-03-31 09:25:00,
2013-03-31 05:30:00,29.0,21.8,30.06,WSW,255,0.0,0.0,74,0.00,,CLR,0.00,VWS V14.01,2013-03-31 09:30:00,
2013-03-31 05:35:00,28.9,22.0,30.06,WSW,255,0.0,0.0,75,0.00,,CLR,0.00,VWS V14.01,2013-03-31 09:35:00,
2013-03-31 05:40:00,28.8,21.9,30.06,WSW,255,0.0,0.0,75,0.00,,CLR,0.00,VWS V14.01,2013-03-31 09:40:00,
2013-03-31 05:45:00,28.8,21.9,30.06,WSW,255,0.0,0.0,75,0.00,,CLR,0.00,VWS V14.01,2013-03-31 09:45:00,
2013-03-31 05:50:00,28.6,22.0,30.06,WSW,255,0.0,0.0,76,0.00,,CLR,0.00,VWS V14.01,2013-03-31 09:50:00,
2013-03-31 05:55:00,28.7,21.8,30.06,WSW,255,0.0,0.0,75,0.00,,CLR,0.00,VWS V14.01,2013-03-31 09:55:00,
2013-03-31 06:00:00,28.9,22.0,30.05,West,262,0.0,0.0,75,0.00,,CLR,0.00,VWS V14.01,2013-03-31 10:00:00,
2013-03-31 06:05:00,28.8,21.9,30.05,West,263,0.0,0.0,75,0.00,,CLR,0.00,VWS V14.01,2013-03-31 10:05:00,
2013-03-31 06:10:00,28.6,21.7,30.05,West,263,0.0,0.0,75,0.00,,CLR,0.00,VWS V14.01,2013-03-31 10:10:00,
2013-03-31 06:15:00,28.2,21.6,30.05,West,263,0.0,0.0,76,0.00,,CLR,0.00,VWS V14.01,2013-03-31 10:15:00,
2013-03-31 06:20:00,28.1,21.8,30.05,West,263,0.0,0.0,77,0.00,,CLR,0.00,VWS V14.01,2013-03-31 10:20:00,
2013-03-31 06:25:00,28.1,21.8,30.05,West,263,0.0,0.0,77,0.00,,CLR,0.00,VWS V14.01,2013-03-31 10:25:00,
2013-03-31 06:30:00,28.2,21.9,30.05,West,261,0.0,0.0,77,0.00,,CLR,0.00,VWS V14.01,2013-03-31 10:30:00,
2013-03-31 06:35:00,28.4,21.8,30.05,West,262,0.0,0.0,76,0.00,,CLR,0.00,VWS V14.01,2013-03-31 10:35:00,
2013-03-31 06:40:00,28.5,22.2,30.05,West,261,0.0,0.0,77,0.00,,CLR,0.00,VWS V14.01,2013-03-31 10:40:00,
2013-03-31 06:45:00,28.6,22.0,30.06,West,262,0.0,0.0,76,0.00,,CLR,0.00,VWS V14.01,2013-03-31 10:45:00,
2013-03-31 06:50:00,28.8,22.5,30.06,West,262,0.0,0.0,77,0.00,,CLR,0.00,VWS V14.01,2013-03-31 10:50:00,
2013-03-31 06:55:00,28.9,22.6,30.06,West,262,0.0,0.0,77,0.00,,CLR,0.00,VWS V14.01,2013-03-31 10:55:00,
2013-03-31 07:00:00,29.1,22.8,30.06,West,261,0.0,0.0,77,0.00,,CLR,0.00,VWS V14.01,2013-03-31 11:00:00,
2013-03-31 07:05:00,29.2,22.9,30.06,West,262,0.0,0.0,77,0.00,,CLR,0.00,VWS V14.01,2013-03-31 11:05:00,
2013-03-31 07:10:00,29.3,23.0,30.06,West,261,0.0,0.0,77,0.00,,CLR,0.00,VWS V14.01,2013-03-31 11:10:00,
2013-03-31 07:15:00,29.3,23.3,30.06,West,261,0.0,0.0,78,0.00,,CLR,0.00,VWS V14.01,2013-03-31 11:15:00,
2013-03-31 07:20:00,29.6,23.3,30.06,West,261,0.0,0.0,77,0.00,,CLR,0.00,VWS V14.01,2013-03-31 11:20:00,
2013-03-31 07:25:00,30.4,24.4,30.06,West,262,0.0,0.0,78,0.00,,CLR,0.00,VWS V14.01,2013-03-31 11:25:00,
2013-03-31 07:30:00,30.9,24.5,30.06,West,262,0.0,0.0,77,0.00,,CLR,0.00,VWS V14.01,2013-03-31 11:30:00,
2013-03-31 07:35:00,31.4,24.7,30.06,West,261,0.0,0.0,76,0.00,,CLR,0.00,VWS V14.01,2013-03-31 11:35:00,
2013-03-31 07:40:00,32.2,24.5,30.06,West,261,0.0,0.0,73,0.00,,CLR,0.00,VWS V14.01,2013-03-31 11:40:00,
2013-03-31 07:45:00,32.9,25.2,30.06,West,262,0.0,0.0,73,0.00,,CLR,0.00,VWS V14.01,2013-03-31 11:45:00,
2013-03-31 07:50:00,33.9,25.2,30.06,SW,217,0.0,0.0,70,0.00,,CLR,0.00,VWS V14.01,2013-03-31 11:50:00,
2013-03-31 07:55:00,34.9,25.1,30.06,SW,225,0.0,0.0,67,0.00,,CLR,0.00,VWS V14.01,2013-03-31 11:55:00,
2013-03-31 08:00:00,35.7,25.1,30.06,SW,225,0.0,0.0,65,0.00,,CLR,0.00,VWS V14.01,2013-03-31 12:00:00,
2013-03-31 08:05:00,36.2,24.1,30.06,SW,225,0.0,0.0,61,0.00,,CLR,0.00,VWS V14.01,2013-03-31 12:05:00,
2013-03-31 08:10:00,36.8,24.2,30.06,SW,225,0.0,0.0,60,0.00,,CLR,0.00,VWS V14.01,2013-03-31 12:10:00,
2013-03-31 08:15:00,36.7,24.1,30.06,NNE,26,2.0,2.0,60,0.00,,CLR,0.00,VWS V14.01,2013-03-31 12:15:00,
2013-03-31 08:20:00,36.6,24.4,30.05,North,1,0.0,2.0,61,0.00,,CLR,0.00,VWS V14.01,2013-03-31 12:20:00,
2013-03-31 08:25:00,36.7,23.7,30.05,NNE,25,1.0,2.0,59,0.00,,CLR,0.00,VWS V14.01,2013-03-31 12:25:00,
2013-03-31 08:30:00,37.1,23.7,30.05,NNE,20,1.0,1.0,58,0.00,,CLR,0.00,VWS V14.01,2013-03-31 12:30:00,
2013-03-31 08:35:00,37.5,23.7,30.05,NE,45,0.0,1.0,57,0.00,,CLR,0.00,VWS V14.01,2013-03-31 12:35:00,
2013-03-31 08:40:00,38.3,24.4,30.05,East,93,1.0,1.0,57,0.00,,CLR,0.00,VWS V14.01,2013-03-31 12:40:00,
2013-03-31 08:45:00,39.1,24.7,30.05,ENE,72,1.0,2.0,56,0.00,,CLR,0.00,VWS V14.01,2013-03-31 12:45:00,
2013-03-31 08:50:00,39.8,25.0,30.05,East,87,1.0,1.0,55,0.00,,CLR,0.00,VWS V14.01,2013-03-31 12:50:00,
2013-03-31 08:55:00,40.7,24.9,30.05,East,88,0.0,1.0,53,0.00,,CLR,0.00,VWS V14.01,2013-03-31 12:55:00,
2013-03-31 09:00:00,40.7,24.0,30.04,East,91,1.0,1.0,51,0.00,,CLR,0.00,VWS V14.01,2013-03-31 13:00:00,
2013-03-31 09:05:00,40.8,23.6,30.04,NE,54,1.0,2.0,50,0.00,,CLR,0.00,VWS V14.01,2013-03-31 13:05:00,
2013-03-31 09:10:00,41.3,24.5,30.04,ENE,63,1.0,2.0,51,0.00,,CLR,0.00,VWS V14.01,2013-03-31 13:10:00,
2013-03-31 09:15:00,41.6,24.8,30.04,ENE,57,0.0,2.0,51,0.00,,CLR,0.00,VWS V14.01,2013-03-31 13:15:00,
2013-03-31 09:20:00,42.4,25.1,30.04,ESE,103,1.0,1.0,50,0.00,,CLR,0.00,VWS V14.01,2013-03-31 13:20:00,
2013-03-31 09:25:00,42.9,24.6,30.04,NE,51,1.0,2.0,48,0.00,,CLR,0.00,VWS V14.01,2013-03-31 13:25:00,
2013-03-31 09:30:00,43.5,24.6,30.03,East,101,3.0,3.0,47,0.00,,CLR,0.00,VWS V14.01,2013-03-31 13:30:00,
2013-03-31 09:35:00,44.5,24.0,30.03,East,88,0.0,5.0,44,0.00,,CLR,0.00,VWS V14.01,2013-03-31 13:35:00,
2013-03-31 09:40:00,45.3,23.6,30.03,ESE,117,2.0,6.0,42,0.00,,CLR,0.00,VWS V14.01,2013-03-31 13:40:00,
2013-03-31 09:45:00,46.1,23.7,30.03,SE,142,1.0,7.0,41,0.00,,CLR,0.00,VWS V14.01,2013-03-31 13:45:00,
2013-03-31 09:50:00,46.7,23.7,30.03,East,95,2.0,5.0,40,0.00,,CLR,0.00,VWS V14.01,2013-03-31 13:50:00,
2013-03-31 09:55:00,47.1,23.4,30.03,SW,226,2.0,5.0,39,0.00,,CLR,0.00,VWS V14.01,2013-03-31 13:55:00,
2013-03-31 10:00:00,47.2,24.1,30.03,SE,146,3.0,6.0,40,0.00,,CLR,0.00,VWS V14.01,2013-03-31 14:00:00,
2013-03-31 10:05:00,47.6,24.5,30.03,SE,139,4.0,6.0,40,0.00,,CLR,0.00,VWS V14.01,2013-03-31 14:05:00,
2013-03-31 10:10:00,47.9,24.8,30.03,SE,136,3.0,6.0,40,0.00,,CLR,0.00,VWS V14.01,2013-03-31 14:10:00,
2013-03-31 10:15:00,48.0,24.9,30.03,ESE,102,1.0,5.0,40,0.00,,CLR,0.00,VWS V14.01,2013-03-31 14:15:00,
2013-03-31 10:20:00,49.0,25.8,30.03,ESE,115,1.0,5.0,40,0.00,,CLR,0.00,VWS V14.01,2013-03-31 14:20:00,
2013-03-31 10:25:00,49.8,24.6,30.03,SSW,195,3.0,7.0,37,0.00,,CLR,0.00,VWS V14.01,2013-03-31 14:25:00,
2013-03-31 10:30:00,50.0,24.8,30.03,SE,129,3.0,5.0,37,0.00,,CLR,0.00,VWS V14.01,2013-03-31 14:30:00,
2013-03-31 10:35:00,50.3,25.7,30.03,ESE,112,5.0,5.0,38,0.00,,CLR,0.00,VWS V14.01,2013-03-31 14:35:00,
2013-03-31 10:40:00,50.4,25.1,30.03,SE,125,3.0,7.0,37,0.00,,CLR,0.00,VWS V14.01,2013-03-31 14:40:00,
2013-03-31 10:45:00,51.0,25.7,30.03,South,174,5.0,6.0,37,0.00,,CLR,0.00,VWS V14.01,2013-03-31 14:45:00,
2013-03-31 10:50:00,51.5,25.5,30.02,SE,138,1.0,4.0,36,0.00,,CLR,0.00,VWS V14.01,2013-03-31 14:50:00,
2013-03-31 10:55:00,52.3,24.8,30.02,ESE,114,2.0,4.0,34,0.00,,CLR,0.00,VWS V14.01,2013-03-31 14:55:00,
2013-03-31 11:00:00,52.5,25.0,30.02,ESE,121,4.0,8.0,34,0.00,,CLR,0.00,VWS V14.01,2013-03-31 15:00:00,
2013-03-31 11:05:00,53.1,26.2,30.02,SSE,166,3.0,4.0,35,0.00,,CLR,0.00,VWS V14.01,2013-03-31 15:05:00,
2013-03-31 11:10:00,53.6,24.5,30.02,SE,124,3.0,8.0,32,0.00,,CLR,0.00,VWS V14.01,2013-03-31 15:10:00,
2013-03-31 11:15:00,54.1,25.6,30.02,South,173,1.0,3.0,33,0.00,,CLR,0.00,VWS V14.01,2013-03-31 15:15:00,
2013-03-31 11:20:00,54.9,25.6,30.02,ESE,109,1.0,6.0,32,0.00,,CLR,0.00,VWS V14.01,2013-03-31 15:20:00,
2013-03-31 11:25:00,55.3,25.2,30.01,SW,231,2.0,6.0,31,0.00,,CLR,0.00,VWS V14.01,2013-03-31 15:25:00,
2013-03-31 11:30:00,55.3,26.0,30.01,SSW,198,2.0,4.0,32,0.00,,CLR,0.00,VWS V14.01,2013-03-31 15:30:00,
2013-03-31 11:35:00,55.8,26.4,30.01,ESE,121,2.0,7.0,32,0.00,,CLR,0.00,VWS V14.01,2013-03-31 15:35:00,
2013-03-31 11:40:00,55.9,25.0,30.01,SE,131,7.0,8.0,31,0.00,,,0.00,weatherlink.com 1.10,2013-03-31 15:40:00,
2013-03-31 11:45:00,55.9,24.9,30.01,SW,217,4.0,9.0,30,0.00,,CLR,0.00,VWS V14.01,2013-03-31 15:45:00,
2013-03-31 11:50:00,56.4,26.9,30.00,SSW,212,2.0,3.0,32,0.00,,CLR,0.00,VWS V14.01,2013-03-31 15:50:00,
2013-03-31 11:55:00,56.5,24.6,30.00,South,177,3.0,10.0,29,0.00,,CLR,0.00,VWS V14.01,2013-03-31 15:55:00,
2013-03-31 12:00:00,56.5,24.6,30.00,SSE,166,4.0,7.0,29,0.00,,CLR,0.00,VWS V14.01,2013-03-31 16:00:00,
2013-03-31 12:05:00,56.5,25.5,30.00,SE,138,3.0,8.0,30,0.00,,CLR,0.00,VWS V14.01,2013-03-31 16:05:00,
2013-03-31 12:10:00,56.7,25.6,29.99,ENE,63,7.0,12.0,30,0.00,,CLR,0.00,VWS V14.01,2013-03-31 16:10:00,
2013-03-31 12:15:00,57.1,24.3,29.99,SSW,198,2.0,9.0,28,0.00,,CLR,0.00,VWS V14.01,2013-03-31 16:15:00,
2013-03-31 12:20:00,57.0,24.2,29.99,SSE,167,6.0,7.0,28,0.00,,CLR,0.00,VWS V14.01,2013-03-31 16:20:00,
2013-03-31 12:25:00,57.2,24.4,29.98,SSW,207,2.0,7.0,28,0.00,,CLR,0.00,VWS V14.01,2013-03-31 16:25:00,
2013-03-31 12:30:00,57.6,24.8,29.98,West,266,2.0,8.0,28,0.00,,CLR,0.00,VWS V14.01,2013-03-31 16:30:00,
2013-03-31 12:35:00,57.2,23.5,29.98,SSW,204,1.0,7.0,27,0.00,,CLR,0.00,VWS V14.01,2013-03-31 16:35:00,
2013-03-31 12:40:00,58.3,25.4,29.97,ESE,121,2.0,2.0,28,0.00,,CLR,0.00,VWS V14.01,2013-03-31 16:40:00,
2013-03-31 12:45:00,59.0,24.2,29.97,SSE,153,9.0,10.0,26,0.00,,CLR,0.00,VWS V14.01,2013-03-31 16:45:00,
2013-03-31 12:50:00,59.2,24.4,29.97,SW,233,6.0,6.0,26,0.00,,CLR,0.00,VWS V14.01,2013-03-31 16:50:00,
2013-03-31 12:55:00,59.4,22.6,29.96,West,259,7.0,7.0,24,0.00,,CLR,0.00,VWS V14.01,2013-03-31 16:55:00,
2013-03-31 13:00:00,59.1,22.4,29.96,South,176,3.0,10.0,24,0.00,,CLR,0.00,VWS V14.01,2013-03-31 17:00:00,
2013-03-31 13:05:00,59.6,23.8,29.96,NW,318,4.0,5.0,25,0.00,,CLR,0.00,VWS V14.01,2013-03-31 17:05:00,
2013-03-31 13:10:00,59.6,22.8,29.96,SSW,207,7.0,7.0,24,0.00,,CLR,0.00,VWS V14.01,2013-03-31 17:10:00,
2013-03-31 13:15:00,59.4,22.6,29.96,SW,217,3.0,12.0,24,0.00,,CLR,0.00,VWS V14.01,2013-03-31 17:15:00,
2013-03-31 13:20:00,59.0,22.3,29.95,WSW,237,7.0,11.0,24,0.00,,CLR,0.00,VWS V14.01,2013-03-31 17:20:00,
2013-03-31 13:25:00,58.7,23.0,29.95,SSW,211,2.0,10.0,25,0.00,,CLR,0.00,VWS V14.01,2013-03-31 17:25:00,
2013-03-31 13:30:00,58.4,22.7,29.95,ESE,117,2.0,9.0,25,0.00,,CLR,0.00,VWS V14.01,2013-03-31 17:30:00,
2013-03-31 13:35:00,58.2,21.6,29.94,WSW,257,5.0,12.0,24,0.00,,CLR,0.00,VWS V14.01,2013-03-31 17:35:00,
2013-03-31 13:40:00,58.4,22.7,29.94,SW,215,4.0,6.0,25,0.00,,CLR,0.00,VWS V14.01,2013-03-31 17:40:00,
2013-03-31 13:45:00,58.5,21.9,29.94,SW,222,3.0,10.0,24,0.00,,CLR,0.00,VWS V14.01,2013-03-31 17:45:00,
2013-03-31 13:50:00,58.6,22.9,29.94,South,183,6.0,9.0,25,0.00,,CLR,0.00,VWS V14.01,2013-03-31 17:50:00,
2013-03-31 13:55:00,58.6,22.9,29.93,SE,134,3.0,8.0,25,0.00,,CLR,0.00,VWS V14.01,2013-03-31 17:55:00,
2013-03-31 14:00:00,59.0,24.2,29.93,South,172,5.0,5.0,26,0.00,,CLR,0.00,VWS V14.01,2013-03-31 18:00:00,
2013-03-31 14:05:00,59.2,22.5,29.93,South,169,8.0,14.0,24,0.00,,CLR,0.00,VWS V14.01,2013-03-31 18:05:00,
2013-03-31 14:10:00,59.2,21.4,29.93,South,184,6.0,18.0,23,0.00,,CLR,0.00,VWS V14.01,2013-03-31 18:10:00,
2013-03-31 14:15:00,59.1,23.3,29.92,South,172,6.0,13.0,25,0.00,,CLR,0.00,VWS V14.01,2013-03-31 18:15:00,
2013-03-31 14:20:00,58.9,22.2,29.92,SW,214,3.0,8.0,24,0.00,,CLR,0.00,VWS V14.01,2013-03-31 18:20:00,
2013-03-31 14:25:00,59.1,22.4,29.92,ESE,117,9.0,9.0,24,0.00,,CLR,0.00,VWS V14.01,2013-03-31 18:25:00,
2013-03-31 14:30:00,58.7,23.0,29.92,SW,225,5.0,9.0,25,0.00,,CLR,0.00,VWS V14.01,2013-03-31 18:30:00,
2013-03-31 14:35:00,58.6,21.9,29.92,SW,222,8.0,8.0,24,0.00,,CLR,0.00,VWS V14.01,2013-03-31 18:35:00,
2013-03-31 14:40:00,58.5,22.8,29.92,NW,309,2.0,12.0,25,0.00,,CLR,0.00,VWS V14.01,2013-03-31 18:40:00,
2013-03-31 14:45:00,58.6,22.9,29.92,SW,231,6.0,6.0,25,0.00,,CLR,0.00,VWS V14.01,2013-03-31 18:45:00,
2013-03-31 14:50:00,59.0,23.2,29.91,SSW,211,4.0,7.0,25,0.00,,CLR,0.00,VWS V14.01,2013-03-31 18:50:00,
2013-03-31 14:55:00,58.8,24.0,29.91,SW,234,7.0,11.0,26,0.00,,CLR,0.00,VWS V14.01,2013-03-31 18:55:00,
2013-03-31 15:00:00,58.8,24.0,29.91,SSW,202,3.0,9.0,26,0.00,,CLR,0.00,VWS V14.01,2013-03-31 19:00:00,
2013-03-31 15:05:00,58.4,24.6,29.90,WNW,285,5.0,10.0,27,0.00,,CLR,0.00,VWS V14.01,2013-03-31 19:05:00,
2013-03-31 15:10:00,58.2,24.4,29.91,South,188,6.0,12.0,27,0.00,,CLR,0.00,VWS V14.01,2013-03-31 19:10:00,
2013-03-31 15:15:00,58.0,24.2,29.90,SE,146,7.0,17.0,27,0.00,,CLR,0.00,VWS V14.01,2013-03-31 19:15:00,
2013-03-31 15:20:00,57.8,24.9,29.90,SW,225,5.0,13.0,28,0.00,,CLR,0.00,VWS V14.01,2013-03-31 19:20:00,
2013-03-31 15:25:00,57.8,25.8,29.90,SW,220,6.0,10.0,29,0.00,,CLR,0.00,VWS V14.01,2013-03-31 19:25:00,
2013-03-31 15:30:00,57.9,25.9,29.90,SSW,193,4.0,11.0,29,0.00,,CLR,0.00,VWS V14.01,2013-03-31 19:30:00,
2013-03-31 15:35:00,57.9,25.9,29.89,SSE,166,3.0,11.0,29,0.00,,CLR,0.00,VWS V14.01,2013-03-31 19:35:00,
2013-03-31 15:40:00,58.0,26.8,29.89,South,187,4.0,6.0,30,0.00,,CLR,0.00,VWS V14.01,2013-03-31 19:40:00,
2013-03-31 15:45:00,58.3,27.0,29.89,WSW,254,6.0,6.0,30,0.00,,CLR,0.00,VWS V14.01,2013-03-31 19:45:00,
2013-03-31 15:50:00,58.3,26.2,29.89,SW,218,4.0,9.0,29,0.00,,CLR,0.00,VWS V14.01,2013-03-31 19:50:00,
2013-03-31 15:55:00,58.3,26.2,29.89,WSW,248,8.0,9.0,29,0.00,,CLR,0.00,VWS V14.01,2013-03-31 19:55:00,
2013-03-31 16:00:00,58.0,26.0,29.89,SW,224,2.0,12.0,29,0.00,,CLR,0.00,VWS V14.01,2013-03-31 20:00:00,
2013-03-31 16:05:00,58.0,26.0,29.89,SSE,160,6.0,17.0,29,0.00,,CLR,0.00,VWS V14.01,2013-03-31 20:05:00,
2013-03-31 16:10:00,58.1,26.0,29.89,SSW,208,4.0,11.0,29,0.00,,CLR,0.00,VWS V14.01,2013-03-31 20:10:00,
2013-03-31 16:15:00,57.7,25.7,29.89,SW,226,5.0,8.0,29,0.00,,CLR,0.00,VWS V14.01,2013-03-31 20:15:00,
2013-03-31 16:20:00,57.6,25.6,29.89,SSW,205,6.0,11.0,29,0.00,,CLR,0.00,VWS V14.01,2013-03-31 20:20:00,
2013-03-31 16:25:00,57.4,26.2,29.89,WSW,241,6.0,8.0,30,0.00,,CLR,0.00,VWS V14.01,2013-03-31 20:25:00,
2013-03-31 16:30:00,57.2,26.1,29.89,SW,214,5.0,8.0,30,0.00,,CLR,0.00,VWS V14.01,2013-03-31 20:30:00,
2013-03-31 16:35:00,56.7,25.6,29.89,WSW,238,5.0,9.0,30,0.00,,CLR,0.00,VWS V14.01,2013-03-31 20:35:00,
2013-03-31 16:40:00,56.7,24.8,29.88,SW,219,6.0,8.0,29,0.00,,CLR,0.00,VWS V14.01,2013-03-31 20:40:00,
2013-03-31 16:45:00,56.6,23.9,29.88,SW,215,5.0,8.0,28,0.00,,CLR,0.00,VWS V14.01,2013-03-31 20:45:00,
2013-03-31 16:50:00,56.8,24.9,29.88,ESE,105,5.0,10.0,29,0.00,,CLR,0.00,VWS V14.01,2013-03-31 20:50:00,
2013-03-31 16:55:00,56.9,24.1,29.88,SSE,160,4.0,10.0,28,0.00,,CLR,0.00,VWS V14.01,2013-03-31 20:55:00,
2013-03-31 17:00:00,56.7,24.0,29.88,South,179,2.0,13.0,28,0.00,,CLR,0.00,VWS V14.01,2013-03-31 21:00:00,
2013-03-31 17:05:00,56.6,23.9,29.88,SSW,205,5.0,10.0,28,0.00,,CLR,0.00,VWS V14.01,2013-03-31 21:05:00,
2013-03-31 17:10:00,56.5,23.8,29.88,South,177,2.0,10.0,28,0.00,,CLR,0.00,VWS V14.01,2013-03-31 21:10:00,
2013-03-31 17:15:00,56.6,23.9,29.88,SW,235,1.0,13.0,28,0.00,,CLR,0.00,VWS V14.01,2013-03-31 21:15:00,
2013-03-31 17:20:00,56.7,24.8,29.88,SW,214,2.0,7.0,29,0.00,,CLR,0.00,VWS V14.01,2013-03-31 21:20:00,
2013-03-31 17:25:00,56.9,24.1,29.87,SSE,152,8.0,14.0,28,0.00,,CLR,0.00,VWS V14.01,2013-03-31 21:25:00,
2013-03-31 17:30:00,56.7,24.8,29.87,SW,222,5.0,11.0,29,0.00,,CLR,0.00,VWS V14.01,2013-03-31 21:30:00,
2013-03-31 17:35:00,56.3,23.6,29.87,South,186,4.0,11.0,28,0.00,,CLR,0.00,VWS V14.01,2013-03-31 21:35:00,
2013-03-31 17:40:00,55.8,24.0,29.87,SSW,201,6.0,11.0,29,0.00,,CLR,0.00,VWS V14.01,2013-03-31 21:40:00,
2013-03-31 17:45:00,55.3,24.4,29.87,South,173,7.0,11.0,30,0.00,,CLR,0.00,VWS V14.01,2013-03-31 21:45:00,
2013-03-31 17:50:00,54.9,24.1,29.87,SW,224,3.0,15.0,30,0.00,,CLR,0.00,VWS V14.01,2013-03-31 21:50:00,
2013-03-31 17:55:00,54.5,24.5,29.87,WSW,257,6.0,10.0,31,0.00,,CLR,0.00,VWS V14.01,2013-03-31 21:55:00,
2013-03-31 18:00:00,54.1,24.9,29.87,SSW,210,4.0,9.0,32,0.00,,CLR,0.00,VWS V14.01,2013-03-31 22:00:00,
2013-03-31 18:05:00,53.9,24.7,29.87,SW,235,2.0,8.0,32,0.00,,CLR,0.00,VWS V14.01,2013-03-31 22:05:00,
2013-03-31 18:10:00,53.6,25.2,29.87,South,187,7.0,14.0,33,0.00,,CLR,0.00,VWS V14.01,2013-03-31 22:10:00,
2013-03-31 18:15:00,53.4,26.5,29.87,SW,229,5.0,13.0,35,0.00,,CLR,0.00,VWS V14.01,2013-03-31 22:15:00,
2013-03-31 18:20:00,53.1,27.5,29.87,SSE,162,6.0,16.0,37,0.00,,CLR,0.00,VWS V14.01,2013-03-31 22:20:00,
2013-03-31 18:25:00,52.9,28.0,29.87,SSW,208,2.0,7.0,38,0.00,,CLR,0.00,VWS V14.01,2013-03-31 22:25:00,
2013-03-31 18:30:00,52.7,29.1,29.87,South,180,7.0,8.0,40,0.00,,CLR,0.00,VWS V14.01,2013-03-31 22:30:00,
2013-03-31 18:35:00,52.5,30.1,29.87,SW,226,2.0,7.0,42,0.00,,CLR,0.00,VWS V14.01,2013-03-31 22:35:00,
2013-03-31 18:40:00,52.3,30.5,29.87,South,174,4.0,10.0,43,0.00,,CLR,0.00,VWS V14.01,2013-03-31 22:40:00,
2013-03-31 18:45:00,52.2,31.0,29.87,SSW,212,5.0,8.0,44,0.00,,CLR,0.00,VWS V14.01,2013-03-31 22:45:00,
2013-03-31 18:50:00,52.0,31.3,29.87,South,188,3.0,7.0,45,0.00,,CLR,0.00,VWS V14.01,2013-03-31 22:50:00,
2013-03-31 18:55:00,51.9,31.8,29.87,ESE,113,4.0,10.0,46,0.00,,CLR,0.00,VWS V14.01,2013-03-31 22:55:00,
2013-03-31 19:00:00,51.8,32.2,29.87,SW,215,4.0,8.0,47,0.00,,CLR,0.00,VWS V14.01,2013-03-31 23:00:00,
2013-03-31 19:05:00,51.6,32.6,29.87,South,169,2.0,7.0,48,0.00,,CLR,0.00,VWS V14.01,2013-03-31 23:05:00,
2013-03-31 19:10:00,51.5,32.5,29.87,SW,229,5.0,11.0,48,0.00,,CLR,0.00,VWS V14.01,2013-03-31 23:10:00,
2013-03-31 19:15:00,51.4,32.4,29.87,SE,143,4.0,11.0,48,0.00,,CLR,0.00,VWS V14.01,2013-03-31 23:15:00,
2013-03-31 19:20:00,51.2,32.7,29.86,SE,132,2.0,9.0,49,0.00,,CLR,0.00,VWS V14.01,2013-03-31 23:20:00,
2013-03-31 19:25:00,51.1,33.1,29.87,SW,217,1.0,9.0,50,0.00,,CLR,0.00,VWS V14.01,2013-03-31 23:25:00,
2013-03-31 19:30:00,51.0,33.5,29.86,SSW,194,5.0,9.0,51,0.00,,CLR,0.00,VWS V14.01,2013-03-31 23:30:00,
2013-03-31 19:35:00,50.9,33.4,29.86,SSE,157,4.0,11.0,51,0.00,,CLR,0.00,VWS V14.01,2013-03-31 23:35:00,
2013-03-31 19:40:00,50.9,33.4,29.86,South,187,8.0,13.0,51,0.00,,CLR,0.00,VWS V14.01,2013-03-31 23:40:00,
2013-03-31 19:45:00,50.8,33.8,29.86,SW,217,1.0,8.0,52,0.00,,CLR,0.00,VWS V14.01,2013-03-31 23:45:00,
2013-03-31 19:50:00,50.7,33.2,29.86,SSE,163,2.0,9.0,51,0.00,,CLR,0.00,VWS V14.01,2013-03-31 23:50:00,
2013-03-31 19:55:00,50.6,34.6,29.86,SSW,210,3.0,10.0,54,0.00,,CLR,0.00,VWS V14.01,2013-03-31 23:55:00,
2013-03-31 20:00:00,50.2,35.1,29.86,SW,228,5.0,15.0,56,0.00,,CLR,0.00,VWS V14.01,2013-04-01 00:00:00,
2013-03-31 20:05:00,50.0,34.9,29.86,SSE,168,4.0,8.0,56,0.00,,CLR,0.00,VWS V14.01,2013-04-01 00:05:00,
2013-03-31 20:10:00,49.8,35.2,29.86,SSW,211,3.0,10.0,57,0.00,,CLR,0.00,VWS V14.01,2013-04-01 00:10:00,
2013-03-31 20:15:00,49.7,36.0,29.86,SE,129,2.0,7.0,59,0.00,,CLR,0.00,VWS V14.01,2013-04-01 00:15:00,
2013-03-31 20:20:00,49.2,35.9,29.86,SSW,203,8.0,9.0,60,0.00,,CLR,0.00,VWS V14.01,2013-04-01 00:20:00,
2013-03-31 20:25:00,48.8,36.8,29.86,SSW,205,5.0,7.0,63,0.00,,CLR,0.00,VWS V14.01,2013-04-01 00:25:00,
2013-03-31 20:30:00,48.4,37.2,29.86,SSE,162,5.0,5.0,65,0.00,,CLR,0.00,VWS V14.01,2013-04-01 00:30:00,
2013-03-31 20:35:00,48.0,38.3,29.85,SW,223,5.0,9.0,69,0.00,,CLR,0.00,VWS V14.01,2013-04-01 00:35:00,
2013-03-31 20:40:00,47.5,38.2,29.85,SSW,193,4.0,9.0,70,0.00,,CLR,0.00,VWS V14.01,2013-04-01 00:40:00,
2013-03-31 20:56:00,47.2,38.7,29.85,SSW,201,2.0,7.0,72,0.00,,CLR,0.00,VWS V14.01,2013-04-01 00:56:00,
2013-03-31 21:00:00,46.2,39.4,29.84,South,187,3.0,4.0,77,0.00,,CLR,0.00,VWS V14.01,2013-04-01 01:00:00,
2013-03-31 21:01:00,46.2,39.4,29.84,SSW,198,3.0,4.0,77,0.00,,CLR,0.00,VWS V14.01,2013-04-01 01:01:00,
2013-03-31 21:06:00,46.0,39.5,29.84,SE,134,0.0,1.0,78,0.00,,CLR,0.00,VWS V14.01,2013-04-01 01:06:00,
2013-03-31 21:11:00,45.8,39.7,29.84,SW,218,0.0,0.0,79,0.00,,CLR,0.00,VWS V14.01,2013-04-01 01:11:00,
2013-03-31 21:15:00,45.6,39.8,29.83,SW,214,0.0,0.0,80,0.00,,CLR,0.00,VWS V14.01,2013-04-01 01:15:00,
2013-03-31 21:16:00,45.6,39.8,29.83,SW,214,0.0,0.0,80,0.00,,CLR,0.00,VWS V14.01,2013-04-01 01:16:00,
2013-03-31 21:21:00,45.4,39.6,29.83,SE,134,0.0,0.0,80,0.00,,CLR,0.00,VWS V14.01,2013-04-01 01:21:00,
2013-03-31 21:26:00,45.4,39.9,29.82,SE,134,0.0,0.0,81,0.00,,CLR,0.00,VWS V14.01,2013-04-01 01:26:00,
2013-03-31 21:30:00,45.2,40.0,29.82,SE,134,0.0,0.0,82,0.00,,CLR,0.00,VWS V14.01,2013-04-01 01:30:00,
2013-03-31 21:31:00,45.2,40.0,29.82,SE,134,0.0,0.0,82,0.00,,CLR,0.00,VWS V14.01,2013-04-01 01:31:00,
2013-03-31 21:36:00,45.1,39.9,29.82,SE,134,0.0,0.0,82,0.00,,CLR,0.00,VWS V14.01,2013-04-01 01:36:00,
2013-03-31 21:41:00,44.9,40.4,29.81,SE,134,0.0,0.0,84,0.00,,CLR,0.00,VWS V14.01,2013-04-01 01:41:00,
2013-03-31 21:45:00,44.8,40.3,29.80,ESE,108,0.0,0.0,84,0.00,,CLR,0.00,VWS V14.01,2013-04-01 01:45:00,
2013-03-31 21:46:00,44.8,40.3,29.80,ESE,108,0.0,0.0,84,0.00,,CLR,0.00,VWS V14.01,2013-04-01 01:46:00,
2013-03-31 21:51:00,44.7,39.9,29.80,ESE,117,0.0,1.0,83,0.00,,CLR,0.00,VWS V14.01,2013-04-01 01:51:00,
2013-03-31 21:57:00,44.8,40.0,29.79,ESE,122,1.0,2.0,83,0.00,,CLR,0.00,VWS V14.01,2013-04-01 01:57:00,
2013-03-31 22:00:00,44.8,40.0,29.79,ESE,111,1.0,2.0,83,0.00,,CLR,0.00,VWS V14.01,2013-04-01 02:00:00,
2013-03-31 22:02:00,44.8,40.0,29.79,ESE,111,0.0,2.0,83,0.00,,CLR,0.00,VWS V14.01,2013-04-01 02:02:00,
2013-03-31 22:07:00,44.8,39.7,29.79,East,97,1.0,2.0,82,0.00,,CLR,0.00,VWS V14.01,2013-04-01 02:07:00,
2013-03-31 22:12:00,45.0,39.8,29.78,ESE,108,3.0,4.0,82,0.00,,CLR,0.00,VWS V14.01,2013-04-01 02:12:00,
2013-03-31 22:15:00,45.2,39.7,29.77,East,101,1.0,2.0,81,0.00,,CLR,0.00,VWS V14.01,2013-04-01 02:15:00,
2013-03-31 22:17:00,45.2,39.7,29.78,ESE,122,3.0,3.0,81,0.00,,CLR,0.00,VWS V14.01,2013-04-01 02:17:00,
2013-03-31 22:22:00,45.5,39.4,29.77,ESE,110,4.0,5.0,79,0.00,,CLR,0.00,VWS V14.01,2013-04-01 02:22:00,
2013-03-31 22:27:00,45.8,39.3,29.76,ESE,118,3.0,7.0,78,0.00,,CLR,0.00,VWS V14.01,2013-04-01 02:27:00,
2013-03-31 22:30:00,45.9,39.1,29.76,ESE,121,0.0,5.0,77,0.00,,CLR,0.00,VWS V14.01,2013-04-01 02:30:00,
2013-03-31 22:32:00,45.9,39.1,29.76,SE,146,4.0,5.0,77,0.00,,CLR,0.00,VWS V14.01,2013-04-01 02:32:00,
2013-03-31 22:37:00,46.2,38.4,29.75,SE,140,4.0,10.0,74,0.00,,CLR,0.00,VWS V14.01,2013-04-01 02:37:00,
2013-03-31 22:42:00,46.5,38.0,29.75,ESE,112,6.0,10.0,72,0.00,,CLR,0.00,VWS V14.01,2013-04-01 02:42:00,
2013-03-31 22:45:00,46.7,37.8,29.75,SSE,155,1.0,8.0,71,0.00,,CLR,0.00,VWS V14.01,2013-04-01 02:45:00,
2013-03-31 22:47:00,46.7,37.8,29.75,SE,131,4.0,8.0,71,0.00,,CLR,0.00,VWS V14.01,2013-04-01 02:47:00,
2013-03-31 22:52:00,46.9,38.0,29.75,SSE,168,4.0,12.0,71,0.01,,CLR,0.01,VWS V14.01,2013-04-01 02:52:00,
2013-03-31 22:57:00,46.7,38.5,29.75,ENE,75,9.0,9.0,73,0.01,,CLR,0.01,VWS V14.01,2013-04-01 02:57:00,
2013-03-31 23:00:00,46.3,38.8,29.74,SSW,195,4.0,11.0,75,0.01,,CLR,0.01,VWS V14.01,2013-04-01 03:00:00,
2013-03-31 23:02:00,46.2,39.1,29.74,ESE,118,9.0,11.0,76,0.01,,CLR,0.01,VWS V14.01,2013-04-01 03:02:00,
2013-03-31 23:07:00,45.9,39.1,29.74,SSE,148,9.0,10.0,77,0.01,,CLR,0.01,VWS V14.01,2013-04-01 03:07:00,
2013-03-31 23:12:00,45.5,39.4,29.74,East,79,3.0,5.0,79,0.02,,CLR,0.02,VWS V14.01,2013-04-01 03:12:00,
2013-03-31 23:15:00,45.1,39.3,29.73,SE,129,7.0,7.0,80,0.02,,CLR,0.02,VWS V14.01,2013-04-01 03:15:00,
2013-03-31 23:17:00,45.1,39.3,29.73,East,96,3.0,7.0,80,0.02,,CLR,0.02,VWS V14.01,2013-04-01 03:17:00,
2013-03-31 23:22:00,44.7,39.5,29.72,ENE,67,4.0,5.0,82,0.02,,CLR,0.02,VWS V14.01,2013-04-01 03:22:00,
2013-03-31 23:27:00,44.5,40.0,29.71,ENE,78,1.0,5.0,84,0.02,,CLR,0.02,VWS V14.01,2013-04-01 03:27:00,
2013-03-31 23:30:00,44.3,40.1,29.71,ESE,108,2.0,2.0,85,0.02,,CLR,0.02,VWS V14.01,2013-04-01 03:30:00,
2013-03-31 23:32:00,44.1,39.9,29.71,SSE,152,2.0,4.0,85,0.02,,CLR,0.02,VWS V14.01,2013-04-01 03:32:00,
2013-03-31 23:37:00,43.9,40.0,29.70,East,96,0.0,2.0,86,0.02,,CLR,0.02,VWS V14.01,2013-04-01 03:37:00,
2013-03-31 23:42:00,43.7,40.1,29.70,ESE,107,2.0,4.0,87,0.03,,CLR,0.03,VWS V14.01,2013-04-01 03:42:00,
2013-03-31 23:45:00,43.7,40.1,29.70,ESE,118,1.0,5.0,87,0.03,,CLR,0.03,VWS V14.01,2013-04-01 03:45:00,
2013-03-31 23:47:00,43.7,40.1,29.69,ENE,72,1.0,6.0,87,0.03,,CLR,0.03,VWS V14.01,2013-04-01 03:47:00,
2013-03-31 23:52:00,43.6,40.3,29.69,ESE,115,1.0,7.0,88,0.04,,CLR,0.04,VWS V14.01,2013-04-01 03:52:00,
2013-03-31 23:57:00,43.4,40.4,29.69,East,101,1.0,4.0,89,0.05,,CLR,0.05,VWS V14.01,2013-04-01 03:57:00,